Location: Cieszkowy
(50.3290°N, 20.5336°E)
Time: 13:54:07
(UTC+00:00)

CZ-2C R/B - Pass Details

Date: 15 June 2024
Orbit: 784 x 868 km, 98.3° (Epoch: 14 July)

Event Time Altitude Azimuth Distance (km) Brightness Sun altitude
Exits shadow 00:09:48 - 152° (SSE) 2,708 5.0 -13.6°
Reaches altitude 10° 00:10:38 10° 151° (SSE) 2,380 4.7 -13.6°
Maximum altitude 00:15:50 65° 71° (ENE) 897 3.0 -13.3°
Drops below altitude 10° 00:21:12 10° 350° (N) 2,451 6.0 -12.9°
Sets 00:23:37 0° 348° (NNW) 3,402 6.8 -12.8°
